(311021) = 2004 AT4

Discovered at Palomar on 2004-01-12 by NEAT.

Orbit

Orbit type: Main Belt

Note: WebGL enabled browser required.

epoch2024-03-31.0
epoch JD2460400.5
perihelion date2020-10-31.65769
perihelion JD2459154.15769
argument of perihelion (°)63.37352
ascending node (°)111.45434
inclination (°)14.64348
eccentricity0.1010531
perihelion distance (AU)2.2919962
Tisserand w.r.t. Jupiter3.4
ΔV w.r.t. Earth (km/sec)10.5
semimajor axis (AU)2.5496458
mean anomaly (°)301.73202
mean daily motion (°/day)0.24209400
aphelion distance (AU)2.807
period (years)4.07
P-vector [x]-0.96890281
P-vector [y]0.00255894
P-vector [z]0.24742836
Q-vector [x]-0.07659935
Q-vector [y]-0.95392915
Q-vector [z]-0.29008916
absolute magnitude16.34
phase slope0.15
uncertainty0
referenceMPEC 2024-E23
observations used353
oppositions14
arc length (days)7371
first opposition used2003
last opposition used2024
residual rms (arc-secs)0.67
perturbers coarse indicatorM-v
perturbers precise indicator003Ek
first observation date used2003-12-27.0
last observation date used2024-03-02.0
computer nameMPCLINUX
JD of orbit computation2456909.054836
perihelion JD uncertainty (days)3.1353E-04
argument of perihelion uncertainty (°)8.0807E-05
ascending node uncertainty (°)1.6359E-05
inclination uncertainty (°)8.3867E-06
eccentricity uncertainty 4.6831E-08
perihelion distance uncertainty (AU)1.0674E-07
Minimum Orbit Intersection Distances (in AU)
for orbit epoch: 2460400.5, reference: E2024-E23
Mercury1.89948
Venus1.58634
Earth1.33946
Mars0.69139
Jupiter2.28367
Saturn6.50732
Uranus16.1779
Neptune27.1313

Observations

357 total observations over interval: 2003 12 27.36333 – 2024 03 02.300874
These data are available for download (format description).

Date (UT) J2000 RA J2000 Dec Magn Location Ref
2003 12 27.36333 08 48 21.59 +19 31 08.3 20.2   704 – Lincoln Laboratory ETS, New Mexico MPS 97078
2003 12 27.39018 08 48 20.93 +19 31 22.9 20.6   704 – Lincoln Laboratory ETS, New Mexico MPS 97078
2003 12 27.40334 08 48 20.53 +19 31 30.5 20.3   704 – Lincoln Laboratory ETS, New Mexico MPS 97078
2004 01 12.29660 08 38 16.27 +22 11 48.7 19.1   644 – Palomar Mountain/NEAT MPS 97078
2004 01 12.31738 08 38 15.19 +22 12 02.1 19.0   644 – Palomar Mountain/NEAT MPS 97078
2004 01 12.33969 08 38 14.04 +22 12 16.8 18.9   644 – Palomar Mountain/NEAT MPS 97078
2004 01 16.30685 08 34 47.68 +22 55 47.1 19.1   644 – Palomar Mountain/NEAT MPS 97078
2004 01 16.32829 08 34 46.46 +22 56 02.0 18.9   644 – Palomar Mountain/NEAT MPS 97078
2004 01 16.35600 08 34 44.89 +22 56 19.7 19.1   644 – Palomar Mountain/NEAT MPS 97078
2004 01 16.41609 08 34 41.45 +22 56 59.0 20.1 V 691 – Steward Observatory, Kitt Peak-Spacewatch MPS 97078
2004 01 16.44492 08 34 39.83 +22 57 18.1 19.7 V 691 – Steward Observatory, Kitt Peak-Spacewatch MPS 97078
2004 01 16.47229 08 34 38.30 +22 57 35.9 19.7 V 691 – Steward Observatory, Kitt Peak-Spacewatch MPS 97078
2004 01 22.29210 08 29 09.51 +24 01 31.8 19.1   704 – Lincoln Laboratory ETS, New Mexico MPS 97078
2004 01 22.30499 08 29 08.67 +24 01 40.5 19.2   704 – Lincoln Laboratory ETS, New Mexico MPS 97078
2004 01 22.31789 08 29 07.89 +24 01 49.1 19.5   704 – Lincoln Laboratory ETS, New Mexico MPS 97078
2004 01 22.33076 08 29 07.09 +24 01 56.6 19.8   704 – Lincoln Laboratory ETS, New Mexico MPS 97078
2004 01 22.34375 08 29 06.32 +24 02 05.0 19.8   704 – Lincoln Laboratory ETS, New Mexico MPS 97078
2004 01 26.28171 08 25 13.83 +24 44 29.1 19.1 R 699 – Lowell Observatory-LONEOS MPS 97874
2004 01 26.31253 08 25 11.95 +24 44 46.8   699 – Lowell Observatory-LONEOS MPS 97874
2004 01 26.33252 08 25 10.69 +24 44 59.9   699 – Lowell Observatory-LONEOS MPS 97874
2004 01 26.35252 08 25 09.45 +24 45 11.1   699 – Lowell Observatory-LONEOS MPS 97874
2004 01 28.37919 08 23 08.87 +25 06 28.2 19.8 V 691 – Steward Observatory, Kitt Peak-Spacewatch MPS 97874
2004 01 28.40767 08 23 07.13 +25 06 45.7 20.6 V 691 – Steward Observatory, Kitt Peak-Spacewatch MPS 97874
2004 01 28.43626 08 23 05.36 +25 07 03.2 20.7 V 691 – Steward Observatory, Kitt Peak-Spacewatch MPS 97874
2004 01 30.27675 08 21 16.53 +25 25 57.1 19.7   704 – Lincoln Laboratory ETS, New Mexico MPS 97874
2004 01 30.28943 08 21 15.76 +25 26 05.3 19.8   704 – Lincoln Laboratory ETS, New Mexico MPS 97874
2004 01 30.30216 08 21 15.02 +25 26 12.4 19.9   704 – Lincoln Laboratory ETS, New Mexico MPS 97874
2004 01 30.31469 08 21 14.23 +25 26 20.2 19.5   704 – Lincoln Laboratory ETS, New Mexico MPS 97874
2004 01 30.32708 08 21 13.51 +25 26 27.6 19.8   704 – Lincoln Laboratory ETS, New Mexico MPS 97874
2004 01 31.28035 08 20 17.43 +25 36 03.4 19.2 C 704 – Lincoln Laboratory ETS, New Mexico MPS 293184
2004 01 31.29371 08 20 16.56 +25 36 11.5 19.0 C 704 – Lincoln Laboratory ETS, New Mexico MPS 293184
2004 01 31.30612 08 20 15.85 +25 36 18.5 19.3 C 704 – Lincoln Laboratory ETS, New Mexico MPS 293184
2007 12 06.46421 08 10 18.57 +16 52 41.9 20.4 V 691 – Steward Observatory, Kitt Peak-Spacewatch MPS 234226
2007 12 06.48186 08 10 18.42 +16 52 47.5 20.1 V 691 – Steward Observatory, Kitt Peak-Spacewatch MPS 234226
2007 12 06.49949 08 10 18.27 +16 52 52.7 20.1 V 691 – Steward Observatory, Kitt Peak-Spacewatch MPS 234226
2007 12 30.28626 07 59 04.77 +19 45 31.4 19.8 V 691 – Steward Observatory, Kitt Peak-Spacewatch MPS 234226
2007 12 30.30391 07 59 03.88 +19 45 41.0 19.6 V 691 – Steward Observatory, Kitt Peak-Spacewatch MPS 234226
2007 12 30.32154 07 59 03.05 +19 45 51.1 19.6 V 691 – Steward Observatory, Kitt Peak-Spacewatch MPS 234226
2007 12 31.40232 07 58 09.90 +19 55 36.9 19.3 C 704 – Lincoln Laboratory ETS, New Mexico MPS 287960
2007 12 31.41526 07 58 09.21 +19 55 44.8 19.7 C 704 – Lincoln Laboratory ETS, New Mexico MPS 287960
2007 12 31.44116 07 58 08.11 +19 55 58.7 19.6 C 704 – Lincoln Laboratory ETS, New Mexico MPS 287960
2008 01 10.43624 07 48 56.05 +21 30 50.6 19.5 V 703 – Catalina Sky Survey MPS 234226
2008 01 10.44332 07 48 55.62 +21 30 55.9 19.2 V 703 – Catalina Sky Survey MPS 234226
2008 01 10.45037 07 48 55.15 +21 30 58.5 19.5 V 703 – Catalina Sky Survey MPS 234226
2008 01 10.45742 07 48 54.75 +21 31 03.3 19.8 V 703 – Catalina Sky Survey MPS 234226
2008 01 11.18812 07 48 11.59 +21 38 08.4 20.1 V 691 – Steward Observatory, Kitt Peak-Spacewatch MPS 234226
2008 01 11.20577 07 48 10.49 +21 38 19.0 19.3 V 691 – Steward Observatory, Kitt Peak-Spacewatch MPS 234226
2008 01 11.22342 07 48 09.36 +21 38 29.5 19.4 V 691 – Steward Observatory, Kitt Peak-Spacewatch MPS 234226
2008 01 15.17693 07 44 08.53 +22 16 56.0 19.4 V 691 – Steward Observatory, Kitt Peak-Spacewatch MPS 234226
2008 01 15.19530 07 44 07.35 +22 17 08.1 19.0 V 691 – Steward Observatory, Kitt Peak-Spacewatch MPS 234226
2008 01 15.21341 07 44 06.21 +22 17 17.7 19.3 V 691 – Steward Observatory, Kitt Peak-Spacewatch MPS 234226
2008 01 19.16173 07 40 02.51 +22 55 17.0 20.3 V 691 – Steward Observatory, Kitt Peak-Spacewatch MPS 235047
2008 01 19.17987 07 40 01.44 +22 55 27.8 19.5 V 691 – Steward Observatory, Kitt Peak-Spacewatch MPS 235047
2008 01 19.19826 07 40 00.25 +22 55 38.5 19.4 V 691 – Steward Observatory, Kitt Peak-Spacewatch MPS 235047
2008 01 30.36369 07 29 01.27 +24 36 54.8   291 – LPL/Spacewatch II MPS 235321
2008 01 30.36774 07 29 01.06 +24 36 57.1   291 – LPL/Spacewatch II MPS 235321
2008 01 30.37175 07 29 00.79 +24 36 59.4   291 – LPL/Spacewatch II MPS 235321
2009 06 19.30147 17 14 54.02 -10 50 06.2 19.3 V G96 – Mt. Lemmon Survey MPS 289005
2009 06 19.31359 17 14 53.26 -10 50 10.1 19.6 V G96 – Mt. Lemmon Survey MPS 289005
2009 06 19.31962 17 14 52.94 -10 50 12.0 19.2 V G96 – Mt. Lemmon Survey MPS 289005
2010 09 18.506353 00 34 19.881 -18 57 04.24 20.61 r F51 – Pan-STARRS 1, Haleakala MPS 365472
2010 09 18.518291 00 34 19.266 -18 57 10.04 20.45 r F51 – Pan-STARRS 1, Haleakala MPS 365472
2011 12 24.37995 07 13 51.63 +17 54 36.3 19.5 V G96 – Mt. Lemmon Survey MPS 404639
2011 12 24.38692 07 13 51.20 +17 54 39.1 19.5 V G96 – Mt. Lemmon Survey MPS 404639
2011 12 24.39382 07 13 50.80 +17 54 42.6 19.3 V G96 – Mt. Lemmon Survey MPS 404639
2011 12 24.40075 07 13 50.41 +17 54 45.2 19.2 V G96 – Mt. Lemmon Survey MPS 404639
2011 12 28.17632 07 10 15.76 +18 23 29.5   691 – Steward Observatory, Kitt Peak-Spacewatch MPS 404640
2011 12 28.19426 07 10 14.68 +18 23 37.8   691 – Steward Observatory, Kitt Peak-Spacewatch MPS 404640
2011 12 28.21220 07 10 13.58 +18 23 46.5   691 – Steward Observatory, Kitt Peak-Spacewatch MPS 404640
2011 12 29.26464 07 09 11.08 +18 32 01.5 19.5   704 – Lincoln Laboratory ETS, New Mexico MPS 404640
2011 12 29.30502 07 09 08.63 +18 32 19.9 19.9   704 – Lincoln Laboratory ETS, New Mexico MPS 404640
2011 12 29.31848 07 09 07.84 +18 32 25.1 20.0   704 – Lincoln Laboratory ETS, New Mexico MPS 404640
2012 01 03.23415 07 04 06.73 +19 11 50.7 19.5 V 691 – Steward Observatory, Kitt Peak-Spacewatch MPS 405928
2012 01 03.25313 07 04 05.50 +19 11 59.0 20.6 V 691 – Steward Observatory, Kitt Peak-Spacewatch MPS 405928
2012 01 03.26838 07 04 04.49 +19 12 06.3 19.6 V 691 – Steward Observatory, Kitt Peak-Spacewatch MPS 405928
2012 01 11.49479 06 55 24.681 +20 19 54.35 19.5 z F51 – Pan-STARRS 1, Haleakala MPS 407668
2012 01 11.50703 06 55 23.909 +20 20 00.18 19.3 z F51 – Pan-STARRS 1, Haleakala MPS 407668
2013 04 23.44903 17 15 49.03 -05 50 49.1 19.7 V G96 – Mt. Lemmon Survey MPS 465474
2013 04 23.45675 17 15 48.92 -05 50 48.0 19.9 V G96 – Mt. Lemmon Survey MPS 465475
2013 04 23.46459 17 15 48.81 -05 50 47.1 19.7 V G96 – Mt. Lemmon Survey MPS 465475
2013 04 23.47242 17 15 48.70 -05 50 46.6 19.9 V G96 – Mt. Lemmon Survey MPS 465475
2013 05 12.38112 17 06 30.99 -05 31 29.7 18.5 V 703 – Catalina Sky Survey MPS 468589
2013 05 12.39980 17 06 30.16 -05 31 27.8 19.2 V 703 – Catalina Sky Survey MPS 468589
2013 05 12.40605 17 06 29.91 -05 31 28.4 20.0 V 703 – Catalina Sky Survey MPS 468589
2013 05 12.43285 17 06 28.69 -05 31 28.5 19.6 V G96 – Mt. Lemmon Survey MPS 468589
2013 05 12.43891 17 06 28.40 -05 31 28.3 19.4 V G96 – Mt. Lemmon Survey MPS 468589
